Binghamton, NY

6:27 PM EST on December 08, 2019 (GMT -0500)
Binghamton Regional-Link

Weather History for KBGM - May, 2019

Change the Weather History Date:

Wednesday, May 1, 2019

  Actual Average Record
Temperature  
Mean Temperature 51 °F 51 °F  
Max Temperature 59 °F 61 °F 84 °F (2010)
Min Temperature 42 °F 41 °F 25 °F (1978)
Degree Days  
Heating Degree Days 14 14  
Month to date heating degree days 14 14  
Since 1 July heating degree days 6804 6813  
Cooling Degree Days 0 0  
Month to date cooling degree days 0 0  
Year to date cooling degree days 0 4  
Moisture  
Dew Point 44 °F    
Average Humidity 78    
Maximum Humidity 89    
Minimum Humidity 67    
Precipitation  
Precipitation 0.01 in 0.11 in 0.61 in (1953)
Month to date precipitation 0.01 0.11  
Year to date precipitation 11.49 11.29  
Snow  
Snow 0.00 in 0.00 in 1.00 in (1963)
Month to date snowfall 0.0 0.0  
Since 1 July snowfall 81.4 83.3  
Snow Depth 0.00 in    
Sea Level Pressure  
Sea Level Pressure 30.24 in    
Wind  
Wind Speed 11 mph (SSE)    
Max Wind Speed 17 mph    
Max Gust Speed 25 mph    
Visibility 10 miles    
Events      
T = Trace of Precipitation, MM = Missing Value Source: NWS Daily Summary

Daily Weather History Graph

Daily Weather History Graph

Search for Another Location

Airport or City:

Astronomy

May. 01, 2019 Rise Set
Actual Time 5:59 AM EDT 8:02 PM EDT
Civil Twilight 5:29 AM EDT 8:33 PM EDT
Nautical Twilight 4:51 AM EDT 9:11 PM EDT
Astronomical Twilight 4:11 AM EDT 9:52 PM EDT
Moon 4:49 AM EDT (5/1) 4:43 PM EDT (5/1)
Length of Visible Light 15h 04m
Length of Day
14h 03m
Waning Crescent, 11% of the Moon is Illuminated
May 1
Waning Crescent
May 4
New
May 11
First Quarter
May 18
Full
May 26
Last Quarter

Hourly Weather History & Observations

Time (EDT) Temp. Windchill Dew Point Humidity Pressure Visibility Wind Dir Wind Speed Gust Speed Precip Events Conditions
12:53 AM 44.1 °F 42.5 °F 37.0 °F 76% 30.41 in 10.0 mi NE 3.5 mph - N/A   Overcast
1:53 AM 43.0 °F 38.8 °F 37.0 °F 80% 30.37 in 10.0 mi ENE 6.9 mph - N/A   Overcast
2:53 AM 43.0 °F 38.2 °F 37.9 °F 82% 30.37 in 10.0 mi ESE 8.1 mph - N/A   Mostly Cloudy
3:53 AM 43.0 °F 39.5 °F 39.0 °F 86% 30.38 in 10.0 mi NE 5.8 mph - 0.00 in   Overcast
4:53 AM 42.1 °F 37.1 °F 39.0 °F 89% 30.35 in 10.0 mi East 8.1 mph - 0.01 in   Overcast
5:53 AM 43.0 °F 36.4 °F 39.9 °F 89% 30.35 in 10.0 mi ESE 12.7 mph - N/A   Overcast
6:53 AM 43.0 °F 36.4 °F 39.9 °F 89% 30.36 in 10.0 mi SE 12.7 mph - N/A   Overcast
7:53 AM 44.1 °F 38.1 °F 39.9 °F 85% 30.37 in 10.0 mi SSE 11.5 mph - N/A   Overcast
8:53 AM 45.0 °F 39.3 °F 39.0 °F 80% 30.36 in 10.0 mi SSE 11.5 mph - N/A   Overcast
9:53 AM 46.9 °F - 39.0 °F 74% 30.34 in 10.0 mi SSE 13.8 mph - N/A   Overcast
10:53 AM 48.0 °F - 41.0 °F 77% 30.33 in 10.0 mi SSE 16.1 mph - N/A   Overcast
11:53 AM 48.9 °F - 42.1 °F 77% 30.30 in 10.0 mi SSE 15.0 mph 19.6 mph N/A   Overcast
12:53 PM 51.1 °F - 44.1 °F 77% 30.28 in 10.0 mi South 12.7 mph 21.9 mph N/A   Overcast
1:53 PM 53.1 °F - 45.0 °F 74% 30.27 in 10.0 mi South 10.4 mph - N/A   Overcast
2:45 PM 57.0 °F - 48.0 °F 72% 30.21 in 10.0 mi South 13.8 mph 19.6 mph N/A   Scattered Clouds
2:53 PM 57.0 °F - 46.9 °F 69% 30.22 in 10.0 mi South 13.8 mph 25.3 mph N/A   Partly Cloudy
3:11 PM 57.0 °F - 46.9 °F 69% 30.19 in 10.0 mi SSE 10.4 mph 21.9 mph N/A   Mostly Cloudy
3:53 PM 57.0 °F - 46.9 °F 69% 30.19 in 10.0 mi SSE 11.5 mph - N/A   Overcast
4:53 PM 57.0 °F - 46.9 °F 69% 30.17 in 10.0 mi SSE 13.8 mph 23.0 mph N/A   Mostly Cloudy
5:53 PM 57.0 °F - 48.0 °F 72% 30.14 in 10.0 mi SSE 11.5 mph - N/A   Mostly Cloudy
6:04 PM 57.0 °F - 46.9 °F 69% 30.12 in 10.0 mi SSE 12.7 mph 25.3 mph N/A   Scattered Clouds
6:53 PM 55.9 °F - 48.0 °F 75% 30.14 in 10.0 mi South 13.8 mph 20.7 mph N/A   Clear
7:15 PM 55.9 °F - 48.0 °F 75% 30.12 in 10.0 mi South 10.4 mph 20.7 mph N/A   Mostly Cloudy
7:53 PM 55.0 °F - 48.9 °F 80% 30.12 in 10.0 mi South 12.7 mph 21.9 mph N/A   Overcast
8:13 PM 54.0 °F - 48.9 °F 83% 30.11 in 10.0 mi South 9.2 mph 21.9 mph N/A   Overcast
8:53 PM 54.0 °F - 48.9 °F 83% 30.12 in 10.0 mi South 11.5 mph 20.7 mph N/A   Overcast
9:53 PM 53.1 °F - 48.9 °F 86% 30.12 in 10.0 mi South 16.1 mph 24.2 mph N/A   Overcast
10:09 PM 53.1 °F - 48.9 °F 86% 30.10 in 10.0 mi SSW 11.5 mph 21.9 mph N/A   Overcast
10:29 PM 53.1 °F - 48.9 °F 86% 30.14 in 10.0 mi SW 11.5 mph 19.6 mph N/A   Overcast
10:53 PM 53.1 °F - 48.9 °F 86% 30.17 in 10.0 mi SW 8.1 mph - N/A   Overcast
11:53 PM 53.1 °F - 50.0 °F 89% 30.15 in 10.0 mi SSW 5.8 mph - N/A   Overcast